Regional Weather Roundup
Issued by NWS Albany, NY

Home | Current Version | Previous Version | Text Only | Print | Product List | Glossary On
Versions: 1 2 3 4 5 6 7 8 9 10 11 12 13 14 15 16 17 18 19 20 21 22 23 24 25 26 27
000
ASUS41 KALY 030910
RWRALY

NEW YORK STATE HOURLY WEATHER ROUNDUP
NATIONAL WEATHER SERVICE ALBANY NY
500 AM EDT TUE MAY 03 2016

NOTE: "FAIR" INDICATES FEW OR NO CLOUDS BELOW 12,000 FEET WITH NO
SIGNIFICANT WEATHER AND/OR NO OBSTRUCTIONS TO VISIBILITY.

NYZ032-033-038>043-046>054-057>066-NYZ062>081-082-084-031000-
EAST


CITY           SKY/WX    TMP DP  RH WIND       PRES   REMARKS
ALBANY         CLOUDY    46  43  89 N7        29.91F
GLENS FALLS    CLOUDY    46  42  86 N5        29.93S
POUGHKEEPSIE   LGT RAIN  51  48  89 N3        29.89S
NEWBURGH       LGT RAIN  50  50 100 E12       29.89S FOG
MONTGOMERY     LGT RAIN  50  48  93 NE7       29.87F
WHITE PLAINS   LGT RAIN  51  49  92 E6        29.86F FOG
NEW YORK CITY  RAIN      54  51  90 NE8       29.86S FOG
CENTRAL PARK   RAIN      53  51  93 VRB5      29.88F FOG
$$

NYZ005>009-017-018-044>046-055-056-031000-
CENTRAL


CITY           SKY/WX    TMP DP  RH WIND       PRES   REMARKS
FULTON         CLOUDY    42  40  92 CALM      29.94F
SYRACUSE       FOG       40  40 100 N6        29.93F VSB 1/4
ROME           FOG       40  40 100 W3        29.94F VSB 1/2
ELMIRA         CLOUDY    46  41  82 NE5       29.90F
BINGHAMTON     CLOUDY    42  40  92 NE7       29.87F
MONTICELLO     CLOUDY    45  45 100 CALM      29.87F
$$

NYZ026>034-041>043-087-031000-
NORTH


CITY           SKY/WX    TMP DP  RH WIND       PRES   REMARKS
WATERTOWN      FOG       37  37 100 CALM      29.96S VSB 1/4
FORT DRUM      NOT AVBL
MASSENA        FOG       33  31  92 CALM      29.97F VSB 1/2
SARANAC LAKE   CLOUDY    39  35  86 CALM      29.90F
PLATTSBURGH    NOT AVBL
$$

NYZ001>004-010>016-019>021-085-031000-
WEST


CITY           SKY/WX    TMP DP  RH WIND       PRES   REMARKS
NIAGARA FALLS  CLEAR     39  34  82 CALM      29.93F
BUFFALO        PTCLDY    41  39  93 NE7       29.92F
DUNKIRK        CLOUDY    38  37  97 CALM      29.91F FOG
JAMESTOWN      CLOUDY    43  39  87 N5        29.88F
WELLSVILLE     CLOUDY    42  40  92 E5        29.89F
ROCHESTER      FOG       40  38  93 NE5       29.94F VSB 1/2
PENN YAN       FOG       37  37 100 CALM      29.92F VSB 1/4
$$

             KEY
       WCI = WIND CHILL INDEX
       VSB = VISIBILITY
       HX  = HEAT INDEX
$$




USA.gov is the U.S. government's official web portal to all federal, state and local government web resources and services.